GW5395 Weather Reports


time (UTC)temp
F
wind
direction
speed
knots
gust
knots
rain 1hr
in
rain 24hr
in
rain mn
in
humidity
%
barometer
mb
20260507140142 74 90 6.1 7.0 0.00 0.00 0.00
20260507135130 74 89 5.2 7.0 0.00 0.00 0.00
20260507134624 74 97 6.1 7.8 0.00 0.00 0.00
20260507134118 75 75 9.6 11.3 0.00 0.00 0.00
20260507133612 75 55 10.4 11.3 0.00 0.00 0.00
20260507133106 75 57 11.3 12.2 0.00 0.00 0.00
20260507132600 75 54 11.3 13.0 0.00 0.00 0.00
20260507132054 75 51 11.3 12.2 0.00 0.00 0.00
20260507131549 75 57 11.3 13.0 0.00 0.00 0.00
20260507130537 75 50 12.2 13.0 0.00 0.00 0.00
20260507130030 75 48 11.3 13.0 0.00 0.00 0.00
20260507125525 75 50 12.2 13.0 0.00 0.00 0.00
20260507125018 75 52 11.3 12.2 0.00 0.00 0.00
20260507124512 75 55 11.3 12.2 0.00 0.00 0.00
20260507124006 75 56 11.3 12.2 0.00 0.00 0.00
20260507122955 75 57 11.3 13.0 0.00 0.00 0.00
20260507121946 75 49 12.2 13.0 0.00 0.00 0.00
20260507120931 75 51 13.0 13.9 0.00 0.00 0.00
20260507120433 75 53 12.2 13.0 0.00 0.00 0.00
20260507115918 75 47 11.3 13.0 0.00 0.00 0.00
20260507115412 75 53 12.2 13.0 0.00 0.00 0.00
20260507113349 75 43 12.2 13.9 0.00 0.00 0.00
20260507112842 75 47 13.0 13.9 0.00 0.00 0.00
20260507112336 75 48 13.0 14.8 0.00 0.00 0.00
20260507111830 75 49 13.0 13.9 0.00 0.00 0.00
20260507111324 75 44 13.0 13.9 0.00 0.00 0.00
20260507110818 75 44 13.0 13.9 0.00 0.00 0.00
20260507110312 75 46 13.0 14.8 0.00 0.00 0.00
20260507104754 75 42 13.9 14.8 0.00 0.00 0.00
20260507104248 75 42 13.9 14.8 0.00 0.00 0.00
20260507103744 75 42 13.9 15.6 0.00 0.00 0.00
20260507103236 75 41 13.9 14.8 0.00 0.00 0.00
20260507102731 75 41 13.9 14.8 0.00 0.00 0.00
20260507102224 75 40 13.0 14.8 0.00 0.00 0.00
20260507101718 75 40 13.9 14.8 0.00 0.00 0.00
20260507101212 75 42 13.0 14.8 0.00 0.00 0.00
20260507100707 75 35 13.0 14.8 0.00 0.00 0.00
20260507100201 75 39 12.2 13.9 0.00 0.00 0.00
20260507095654 75 36 13.9 15.6 0.00 0.00 0.00
20260507095149 75 37 14.8 15.6 0.00 0.00 0.00
20260507094646 75 43 13.9 15.6 0.00 0.00 0.00
20260507094136 75 38 14.8 15.6 0.00 0.00 0.00
20260507093630 75 40 13.9 14.8 0.00 0.00 0.00
20260507093124 75 33 14.8 16.5 0.00 0.00 0.00
20260507092618 75 33 13.9 15.6 0.00 0.00 0.00
20260507092112 75 38 13.9 15.6 0.00 0.00 0.00
20260507091607 75 35 13.9 15.6 0.00 0.00 0.00
20260507091100 75 39 13.9 14.8 0.00 0.00 0.00
20260507090554 75 38 13.9 15.6 0.00 0.00 0.00
20260507090048 75 33 14.8 15.6 0.00 0.00 0.00
20260507085037 76 39 13.9 15.6 0.00 0.00 0.00
20260507084530 76 42 13.0 14.8 0.00 0.00 0.00
20260507084024 76 43 13.9 14.8 0.00 0.00 0.00
20260507083518 76 39 13.9 14.8 0.00 0.00 0.00
20260507083013 76 38 13.9 15.6 0.00 0.00 0.00
20260507082507 76 30 13.9 14.8 0.00 0.00 0.00
20260507080948 76 21 14.8 16.5 0.00 0.00 0.00
20260507080442 76 17 14.8 16.5 0.00 0.00 0.00
20260507075936 76 23 14.8 16.5 0.00 0.00 0.00
20260507074924 76 30 14.8 15.6 0.00 0.00 0.00
20260507074418 76 21 14.8 16.5 0.00 0.00 0.00
20260507073913 76 21 13.9 15.6 0.00 0.00 0.00
20260507073406 76 19 14.8 15.6 0.00 0.00 0.00
20260507072900 76 21 14.8 15.6 0.00 0.00 0.00
20260507072355 76 22 13.9 14.8 0.00 0.00 0.00
20260507071343 76 14 14.8 16.5 0.00 0.00 0.00
20260507070836 76 14 13.9 14.8 0.00 0.00 0.00
20260507070331 76 15 13.0 14.8 0.00 0.00 0.00
20260507065825 76 17 13.9 14.8 0.00 0.00 0.00
20260507064812 76 19 13.9 15.6 0.00 0.00 0.00
20260507064307 76 19 13.9 15.6 0.00 0.00 0.00
20260507063800 76 17 13.9 15.6 0.00 0.00 0.00
20260507063254 76 15 14.8 16.5 0.00 0.00 0.00
20260507062758 76 11 13.0 15.6 0.00 0.00 0.00
20260507061736 76 14 13.9 14.8 0.00 0.00 0.00
20260507061230 76 18 13.9 15.6 0.00 0.00 0.00
20260507060724 76 18 14.8 15.6 0.00 0.00 0.00
20260507060218 76 16 14.8 15.6 0.00 0.00 0.00
20260507055206 76 15 13.9 14.8 0.00 0.00 0.00
20260507054700 76 17 13.9 15.6 0.00 0.00 0.00
20260507054154 76 18 13.9 14.8 0.00 0.00 0.00
20260507053142 76 14 13.9 15.6 0.00 0.00 0.00
20260507052636 76 14 13.9 15.6 0.00 0.00 0.00
20260507051641 76 15 14.8 15.6 0.00 0.00 0.00
20260507051120 76 13 13.9 15.6 0.00 0.00 0.00
20260507050620 76 13 13.9 15.6 0.00 0.00 0.00
20260507050107 76 15 14.8 16.5 0.00 0.00 0.00
20260507045600 76 14 14.8 15.6 0.00 0.00 0.00
20260507044108 77 15 10.4 13.9 0.00 0.00 0.00
20260507043115 77 29 8.7 9.6 0.00 0.00 0.00
20260507042524 77 34 8.7 9.6 0.00 0.00 0.00
20260507042018 77 29 8.7 9.6 0.00 0.00 0.00
20260507041511 77 35 8.7 9.6 0.00 0.00 0.00
20260507040501 77 32 7.8 9.6 0.00 0.00 0.00
20260507035954 77 40 7.8 8.7 0.00 0.00 0.00
20260507035448 77 42 7.8 8.7 0.00 0.00 0.00
20260507034942 77 48 7.0 7.8 0.00 0.00 0.00
20260507034436 78 44 7.0 7.8 0.00 0.00 0.00
20260507033931 78 44 7.0 8.7 0.00 0.00 0.00
20260507033424 78 37 7.8 8.7 0.00 0.00 0.00
20260507030854 80 3 7.0 7.8 0.00 0.00 0.00
20260507030356 80 6 7.8 8.7 0.00 0.00 0.00
20260507025842 79 358 7.8 10.4 0.00 0.00 0.00
20260507025336 78 353 7.8 9.6 0.00 0.00 0.00
20260507023312 78 21 8.7 9.6 0.00 0.00 0.00
20260507022806 79 20 7.8 8.7 0.00 0.00 0.00
20260507022301 79 24 7.8 8.7 0.00 0.00 0.00
20260507021754 79 18 7.8 9.6 0.00 0.00 0.00
20260507020743 80 6 7.0 8.7 0.00 0.00 0.00
20260507020236 81 4 7.0 7.8 0.00 0.00 0.00
20260507015730 81 2 7.0 7.8 0.00 0.00 0.00
20260507015224 81 6 7.0 7.8 0.00 0.00 0.00
20260507014719 80 9 7.0 7.8 0.00 0.00 0.00
20260507014213 82 1 7.0 7.8 0.00 0.00 0.00
20260507013200 79 10 7.0 7.8 0.00 0.00 0.00
20260507012702 81 17 7.0 8.7 0.00 0.00 0.00
20260507012148 80 31 5.2 7.0 0.00 0.00 0.00
20260507011642 80 34 6.1 7.0 0.00 0.00 0.00
20260507011145 80 40 5.2 7.0 0.00 0.00 0.00
20260507010631 80 38 5.2 7.0 0.00 0.00 0.00
20260507010124 81 40 6.1 7.0 0.00 0.00 0.00
20260507004606 81 30 6.1 7.0 0.00 0.00 0.00
20260507004100 81 34 5.2 6.1 0.00 0.00 0.00
20260507003555 81 32 5.2 7.0 0.00 0.00 0.00
20260507003048 81 34 4.3 6.1 0.00 0.00 0.00
20260507002543 81 29 5.2 7.0 0.00 0.00 0.00
20260507002036 81 28 6.1 7.0 0.00 0.00 0.00
20260507001531 81 29 5.2 6.1 0.00 0.00 0.00
20260507001024 80 31 6.1 7.0 0.00 0.00 0.00
20260507000518 80 34 6.1 7.0 0.00 0.00 0.00
20260507000012 80 29 5.2 7.0 0.00 0.00 0.00
20260506235515 80 31 5.2 7.0 0.00 0.00 0.00
20260506235000 80 23 6.1 7.0 0.00 0.00 0.00
20260506234454 79 31 7.0 7.8 0.00 0.00 0.00
20260506233948 79 21 7.0 7.8 0.00 0.00 0.00
20260506233442 79 30 7.8 8.7 0.00 0.00 0.00
20260506232936 79 25 7.0 7.8 0.00 0.00 0.00
20260506232431 79 16 7.8 8.7 0.00 0.00 0.00
20260506231924 79 29 7.0 7.8 0.00 0.00 0.00
20260506231418 79 32 7.0 7.8 0.00 0.00 0.00
20260506230912 79 32 6.1 7.8 0.00 0.00 0.00
20260506230407 79 36 6.1 7.0 0.00 0.00 0.00
20260506225904 79 39 6.1 7.8 0.00 0.00 0.00
20260506225354 79 39 6.1 7.8 0.00 0.00 0.00
20260506224848 78 47 7.0 8.7 0.00 0.00 0.00
20260506224351 79 44 6.1 7.8 0.00 0.00 0.00
20260506223836 78 49 7.8 8.7 0.00 0.00 0.00
20260506222824 78 54 7.8 8.7 0.00 0.00 0.00
20260506222319 78 49 7.0 7.8 0.00 0.00 0.00
20260506221820 78 42 6.1 7.8 0.00 0.00 0.00
20260506221306 79 38 6.1 7.8 0.00 0.00 0.00
20260506220800 78 40 7.0 7.8 0.00 0.00 0.00
20260506220254 78 34 7.0 8.7 0.00 0.00 0.00
20260506215242 78 42 7.0 7.8 0.00 0.00 0.00
20260506214240 78 30 6.1 7.8 0.00 0.00 0.00
20260506213724 79 35 6.1 7.8 0.00 0.00 0.00
20260506213218 79 31 5.2 6.1 0.00 0.00 0.00
20260506212712 79 27 6.1 7.0 0.00 0.00 0.00
20260506212206 79 35 5.2 7.0 0.00 0.00 0.00
20260506211154 79 36 5.2 6.1 0.00 0.00 0.00
20260506210648 79 32 5.2 7.0 0.00 0.00 0.00
20260506210142 79 27 5.2 7.0 0.00 0.00 0.00
20260506205636 79 31 5.2 7.0 0.00 0.00 0.00
20260506205130 79 39 5.2 6.1 0.00 0.00 0.00
20260506204119 79 36 4.3 6.1 0.00 0.00 0.00
20260506203106 79 49 5.2 6.1 0.00 0.00 0.00
20260506202600 79 56 5.2 6.1 0.00 0.00 0.00
20260506202054 79 45 5.2 6.1 0.00 0.00 0.00
20260506201041 79 60 5.2 6.1 0.00 0.00 0.00
20260506200536 79 59 5.2 6.1 0.00 0.00 0.00
20260506200030 79 53 5.2 5.2 0.00 0.00 0.00
20260506195525 79 54 4.3 5.2 0.00 0.00 0.00
20260506195018 79 44 3.5 4.3 0.00 0.00 0.00
20260506194511 80 37 3.5 4.3 0.00 0.00 0.00
20260506194007 80 29 3.5 3.5 0.00 0.00 0.00
20260506193459 79 33 3.5 3.5 0.00 0.00 0.00
20260506192954 79 36 3.5 4.3 0.00 0.00 0.00
20260506192448 79 40 3.5 4.3 0.00 0.00 0.00
20260506191942 79 38 3.5 3.5 0.00 0.00 0.00
20260506191436 79 33 2.6 3.5 0.00 0.00 0.00
20260506190929 79 30 2.6 3.5 0.00 0.00 0.00
20260506190424 78 24 2.6 3.5 0.00 0.00 0.00
20260506185918 78 20 3.5 3.5 0.00 0.00 0.00
20260506185415 78 7 2.6 3.5 0.00 0.00 0.00
20260506184906 78 358 2.6 2.6 0.00 0.00 0.00
20260506184408 78 358 1.7 2.6 0.00 0.00 0.00
20260506183348 78 354 1.7 2.6 0.00 0.00 0.00
20260506182842 78 5 1.7 2.6 0.00 0.00 0.00
20260506182336 78 14 1.7 2.6 0.00 0.00 0.00
20260506181325 78 318 0.9 1.7 0.00 0.00 0.00
20260506180827 77 311 1.7 1.7 0.00 0.00 0.00
20260506180312 77 300 1.7 1.7 0.00 0.00 0.00
20260506175806 76 305 1.7 1.7 0.00 0.00 0.00
20260506175300 76 264 2.6 2.6 0.00 0.00 0.00
20260506174248 75 260 2.6 3.5 0.00 0.00 0.00
20260506173742 75 269 2.6 2.6 0.00 0.00 0.00
20260506172225 74 246 2.6 4.3 0.00 0.00 0.00
20260506170706 73 218 1.7 2.6 0.00 0.00 0.00
20260506164642 72 128 4.3 5.2 0.00 0.00 0.00
20260506164136 72 125 6.1 7.0 0.00 0.00 0.00
20260506163142 71 124 7.0 7.8 0.00 0.00 0.00
20260506162618 71 119 5.2 6.1 0.00 0.00 0.00
20260506155534 71 113 4.3 5.2 0.00 0.00 0.00
20260506155035 70 126 5.2 6.1 0.00 0.00 0.00
20260506154015 69 140 6.1 7.8 0.00 0.00 0.00
20260506152507 69 155 6.1 7.0 0.00 0.00 0.00
20260506151446 68 144 6.1 7.8 0.00 0.00 0.00
20260506145928 68 139 5.2 7.0 0.00 0.00 0.00
20260506145422 69 138 6.1 7.8 0.00 0.00 0.00
20260506144916 69 136 6.1 7.0 0.00 0.00 0.00
20260506144410 70 144 6.1 7.0 0.00 0.00 0.00
20260506143904 69 151 5.2 7.0 0.00 0.00 0.00
20260506143358 71 156 4.3 6.1 0.00 0.00 0.00
20260506142853 70 150 5.2 6.1 0.00 0.00 0.00
20260506142346 69 159 6.1 7.8 0.00 0.00 0.00
20260506141848 70 164 7.0 7.8 0.00 0.00 0.00
20260506140836 69 160 6.1 7.8 0.00 0.00 0.00